Waarnemingen

Advertentie
Mijn weer
Carcassonne, Frankrijk (7635): temperatuur & dauwpunt: 16.11.2017 08:00:00 - 22.11.2017 08:00:00 (CET)Carcassonne, Frankrijk (7635): temperatuur 5cm: 16.11.2017 08:00:00 - 22.11.2017 08:00:00 (CET)Carcassonne, Frankrijk (7635): temperatuur -20cm & temperatuur -100cm: 16.11.2017 08:00:00 - 22.11.2017 08:00:00 (CET)Carcassonne, Frankrijk (7635): windsnelheid & windstoten: 16.11.2017 08:00:00 - 22.11.2017 08:00:00 (CET)Carcassonne, Frankrijk (7635): windrichting: 16.11.2017 08:00:00 - 22.11.2017 08:00:00 (CET)Carcassonne, Frankrijk (7635): luchtdruk: 16.11.2017 08:00:00 - 22.11.2017 08:00:00 (CET)Carcassonne, Frankrijk (7635): zicht: 16.11.2017 08:00:00 - 22.11.2017 08:00:00 (CET)Carcassonne, Frankrijk (7635): Zonneschijnduur: 16.11.2017 08:00:00 - 22.11.2017 08:00:00 (CET)Carcassonne, Frankrijk (7635): neerslag: 16.11.2017 08:00:00 - 22.11.2017 08:00:00 (CET)
Datum & Tijd tt [°C] td [°C] tt 5cm [°C] tt -20cm [°C] tt -100cm [°C] ff [km/u] ff [kn] fx [km/u] fx [kn] dd ppp [hPa] vv [km] sd [min] rr [mm]
22.11.2017 08:00:00 9,7 9,2 9,2 8,5 13,1 15 8 27 14 O 1016,6 2,3 0 0,0
22.11.2017 07:00:00 9,5 9,0 9,2 8,5 13,1 17 9 32 17 O 1016,6 1,1 0 0,0
22.11.2017 06:00:00 9,9 9,4 6,5 8,5 13,2 15 8 27 15 OZO 1017,1 1,9 0 0,0
22.11.2017 05:00:00 6,7 6,4 2,2 8,6 13,1 4 2 9 5 ZO 1017,2 3,3 0 0,0
22.11.2017 04:00:00 1,6 0,7 -1,2 8,8 13,2 2 1 10 5 - 1017,7 10 0 0,0
22.11.2017 03:00:00 1,8 0,8 -1,2 9,0 13,2 4 2 9 5 Z 1018,0 10 0 0,0
22.11.2017 02:00:00 1,8 0,3 -1,0 9,2 13,2 0 0 8 4 N 1017,9 7 0 0,0
22.11.2017 01:00:00 3,3 1,8 -0,1 9,4 13,2 2 1 9 5 - 1018,2 10 0 0,0
22.11.2017 00:00:00 4,2 2,7 0,8 9,6 13,2 5 3 9 5 Z 1018,3 19 0 0,0
21.11.2017 23:00:00 4,4 2,4 1,1 9,7 13,2 4 2 8 5 - 1018,5 10 0 0,0
21.11.2017 22:00:00 6,1 3,9 1,9 9,9 13,2 5 3 10 6 - 1018,7 10 0 0,0
21.11.2017 21:00:00 7,5 3,7 2,9 10,0 13,2 8 4 13 7 ZZW 1019,1 10 0 0,0
21.11.2017 20:00:00 8,3 4,3 3,5 10,2 13,2 4 2 9 5 - 1019,3 10 0 0,0
21.11.2017 19:00:00 9,9 4,5 4,9 10,3 13,2 5 3 10 5 - 1019,3 10 0 0,0
21.11.2017 18:00:00 11,3 4,3 6,2 10,2 13,2 5 3 10 6 ZW 1019,1 10 0 0,0
21.11.2017 17:00:00 17,1 5,1 13,9 10,0 13,2 6 3 12 6 W 1018,6 3,7 57 0,0
21.11.2017 16:00:00 18,5 6,3 18,9 9,7 13,2 9 5 15 8 WNW 1018,8 10 60 0,0
21.11.2017 15:00:00 18,7 7,2 20,1 9,2 13,2 9 5 17 9 WNW 1019,2 10 60 0,0
21.11.2017 14:00:00 17,3 6,5 19,6 8,7 13,2 11 6 18 10 WNW 1020,0 10 60 0,0
21.11.2017 13:00:00 15,2 7,5 17,1 8,3 13,3 9 5 14 8 WNW 1021,1 10 60 0,0
21.11.2017 12:00:00 12,2 6,2 14,2 8,0 13,3 8 4 12 6 WNW 1021,9 10 60 0,0
21.11.2017 11:00:00 9,0 6,3 11,0 7,8 13,3 5 3 9 5 NW 1022,7 10 60 0,0
21.11.2017 10:00:00 5,6 4,9 4,1 7,9 13,3 4 2 9 5 W 1022,7 20 60 0,0
21.11.2017 09:00:00 2,7 2,3 -1,9 8,1 13,3 0 0 5 3 N 1022,8 9 45 0,0
21.11.2017 08:00:00 0,4 -0,2 -2,3 8,2 13,3 0 0 2 1 N 1022,6 3,1 0 0,0
21.11.2017 07:00:00 0,7 0,1 -1,9 8,4 13,3 0 0 6 3 N 1022,3 1,9 0 0,0
21.11.2017 06:00:00 0,9 0,3 -1,4 8,5 13,3 0 0 5 3 N 1022,2 5 0 0,0
21.11.2017 05:00:00 1,9 1,5 -0,3 8,6 13,3 5 3 8 4 - 1022,3 4,4 0 0,0
21.11.2017 04:00:00 2,1 1,7 0,5 8,8 13,3 4 2 9 5 - 1022,3 2,2 0 0,0
21.11.2017 03:00:00 2,4 1,8 1,9 8,9 13,3 5 3 8 4 W 1022,8 0,5 0 0,0
21.11.2017 02:00:00 2,9 2,3 -0,2 9,1 13,3 5 3 11 6 NW 1022,8 0,3 0 0,0
21.11.2017 01:00:00 3,4 2,5 0,2 9,3 13,3 4 2 11 6 W 1023,1 3,7 0 0,0
21.11.2017 00:00:00 3,2 2,2 -0,1 9,5 13,3 5 3 8 4 WNW 1023,2 1,7 0 0,0
20.11.2017 23:00:00 4,2 3,0 1,2 9,7 13,4 4 2 8 5 WNW 1023,0 2,0 0 0,0
20.11.2017 22:00:00 5,2 3,7 1,8 9,8 13,4 5 3 10 5 WNW 1023,1 6 0 0,0
20.11.2017 21:00:00 6,2 4,4 3,2 9,9 13,4 5 3 12 6 NW 1023,1 10 0 0,0
20.11.2017 20:00:00 8,7 5,6 7,3 10,0 13,4 8 5 22 12 W 1022,9 21 0 0,0
20.11.2017 19:00:00 9,5 5,7 8,2 10,1 13,4 7 4 24 13 W 1022,5 35 0 0,0
20.11.2017 18:00:00 10,3 6,1 9,2 10,0 13,4 13 7 26 14 W 1022,3 10 0 0,0
20.11.2017 17:00:00 11,0 6,3 10,3 9,9 13,4 9 5 27 15 W 1022,1 10 49 0,0
20.11.2017 16:00:00 12,6 6,6 13,4 9,7 13,4 18 10 34 18 WNW 1022,3 10 60 0,0
20.11.2017 15:00:00 13,2 6,5 15,0 9,3 13,4 22 12 33 18 WNW 1022,3 10 60 0,0
20.11.2017 14:00:00 13,4 7,4 14,9 8,9 13,4 21 11 35 19 WNW 1022,7 10 60 0,0
20.11.2017 13:00:00 11,8 6,7 14,0 8,5 13,4 21 11 31 17 WNW 1023,9 10 60 0,0
20.11.2017 12:00:00 10,5 6,3 12,7 8,2 13,4 21 11 31 17 WNW 1024,9 10 60 0,0
20.11.2017 11:00:00 9,6 6,3 10,9 8,0 13,4 18 10 34 18 WNW 1025,1 10 60 0,0
20.11.2017 10:00:00 8,0 5,3 7,4 7,9 13,4 15 8 30 16 W 1025,3 10 60 0,0
20.11.2017 09:00:00 6,4 4,9 5,4 8,0 13,5 18 10 30 16 W 1025,2 10 7 0,0
20.11.2017 08:00:00 5,9 4,7 4,3 8,1 13,5 11 6 20 11 W 1025,0 10 0 0,0
20.11.2017 07:00:00 5,3 3,8 3,4 8,2 13,5 10 5 26 14 W 1024,9 12 0 0,0
20.11.2017 06:00:00 4,8 3,3 0,8 8,4 13,5 18 10 30 16 W 1024,7 10 0 0,0
20.11.2017 05:00:00 3,1 1,6 1,2 8,5 13,5 4 2 15 8 - 1025,1 7 0 0,0
20.11.2017 04:00:00 3,4 1,8 1,3 8,6 13,5 9 5 15 8 WNW 1025,5 10 0 0,0
20.11.2017 03:00:00 4,3 2,2 1,0 8,7 13,5 8 4 13 7 W 1026,0 10 0 0,0
20.11.2017 02:00:00 5,9 2,7 4,3 8,8 13,5 5 3 32 17 - 1026,1 10 0 0,0
20.11.2017 01:00:00 6,3 2,7 5,3 9,0 13,5 16 9 28 15 W 1026,1 10 0 0,0
20.11.2017 00:00:00 6,0 2,5 5,1 9,1 13,5 13 7 27 14 W 1026,6 10 0 0,0
19.11.2017 23:00:00 6,1 2,4 5,3 9,2 13,6 16 9 28 15 W 1026,2 10 0 0,0
19.11.2017 22:00:00 6,3 2,4 5,5 9,4 13,6 15 8 34 18 W 1026,1 10 0 0,0
19.11.2017 21:00:00 6,6 2,9 5,7 9,5 13,6 18 10 34 18 W 1025,8 10 0 0,0
19.11.2017 20:00:00 6,9 3,3 6,2 9,6 13,6 18 10 35 19 W 1025,4 10 0 0,0
19.11.2017 19:00:00 7,6 3,3 6,9 9,7 13,6 21 12 36 20 W 1025,0 26 0 0,0
19.11.2017 18:00:00 8,2 3,4 7,5 9,7 13,6 21 11 35 19 W 1024,4 10 0 0,0
19.11.2017 17:00:00 9,2 3,6 8,7 9,6 13,6 21 11 40 22 W 1023,9 10 60 0,0
19.11.2017 16:00:00 10,2 3,9 10,8 9,5 13,6 22 12 44 24 W 1023,9 10 60 0,0
19.11.2017 15:00:00 10,5 4,2 11,8 9,2 13,6 29 16 46 25 W 1023,8 15 60 0,0
19.11.2017 14:00:00 10,0 4,4 11,6 8,8 13,6 26 14 48 26 W 1024,3 10 60 0,0
19.11.2017 13:00:00 8,9 4,1 10,6 8,5 13,6 26 14 48 26 W 1024,9 10 60 0,0
19.11.2017 12:00:00 8,0 4,6 9,3 8,3 13,6 29 16 46 25 W 1025,1 8 60 0,0
19.11.2017 11:00:00 5,7 5,0 4,3 8,3 13,6 26 14 43 23 W 1025,5 7 39 0,0
19.11.2017 10:00:00 3,4 3,0 3,1 8,3 13,6 18 10 37 20 W 1025,5 1,5 8 0,0
19.11.2017 09:00:00 3,2 2,8 3,0 8,4 13,6 18 10 31 17 W 1025,4 3,2 0 0,0
19.11.2017 08:00:00 3,5 3,1 3,0 8,5 13,7 16 9 33 18 W 1025,1 3,9 0 0,0
19.11.2017 07:00:00 3,3 2,9 2,9 8,5 13,6 16 9 40 22 W 1024,5 2,5 0 0,0
19.11.2017 06:00:00 3,6 3,2 3,3 8,6 13,7 18 10 40 21 W 1024,3 2,4 0 0,0
19.11.2017 05:00:00 3,9 3,3 3,5 8,7 13,7 18 10 39 21 W 1024,1 4,5 0 0,0
19.11.2017 04:00:00 4,0 3,4 3,2 8,8 13,7 18 10 31 17 W 1023,9 2,6 0 0,0
19.11.2017 03:00:00 3,7 2,8 2,8 8,9 13,7 10 6 23 12 W 1024,0 4,4 0 0,0
19.11.2017 02:00:00 4,3 3,3 3,6 9,1 13,7 13 7 28 15 W 1024,0 6 0 0,0
19.11.2017 01:00:00 4,4 3,5 3,6 9,2 13,7 16 9 31 17 W 1024,5 6 0 0,0
19.11.2017 00:00:00 4,9 3,6 4,4 9,4 13,7 18 10 33 18 W 1024,7 6 0 0,0
18.11.2017 23:00:00 5,3 3,8 4,5 9,5 13,7 18 10 34 18 W 1024,7 7 0 0,0
18.11.2017 22:00:00 5,1 3,6 4,3 9,7 13,7 16 9 29 16 W 1024,7 7 0 0,0
18.11.2017 21:00:00 6,0 4,0 5,0 9,8 13,7 14 7 34 18 W 1024,2 10 0 0,0
18.11.2017 20:00:00 5,8 3,8 5,1 10,0 13,7 16 9 35 19 W 1024,1 10 0 0,0
18.11.2017 19:00:00 6,3 3,8 5,6 10,1 13,7 24 13 45 24 W 1024,0 10 0 0,0
18.11.2017 18:00:00 6,6 4,4 5,9 10,2 13,8 21 11 39 21 W 1023,7 10 0 0,0
18.11.2017 17:00:00 8,4 5,1 7,7 10,1 13,7 22 12 42 23 W 1023,2 12 60 0,0
18.11.2017 16:00:00 9,7 5,7 10,5 9,9 13,8 21 11 43 23 W 1022,8 10 60 0,0
18.11.2017 15:00:00 9,8 5,8 11,4 9,7 13,8 28 15 45 24 W 1022,7 10 60 0,0
18.11.2017 14:00:00 9,4 6,1 10,1 9,4 13,8 29 16 49 26 WNW 1023,2 8 57 0,0
18.11.2017 13:00:00 8,5 5,8 9,4 9,0 13,8 29 16 48 26 W 1023,6 8 58 0,0
18.11.2017 12:00:00 8,1 5,4 9,2 8,8 13,8 31 17 49 27 WNW 1024,1 8 51 0,0
18.11.2017 11:00:00 7,3 5,4 7,0 8,7 13,8 26 14 42 23 W 1024,1 8 23 0,0
18.11.2017 10:00:00 6,2 5,2 6,7 8,7 13,8 22 12 41 22 W 1024,0 4,7 41 0,0
18.11.2017 09:00:00 6,9 5,4 6,0 8,8 13,8 24 13 38 21 W 1023,7 7 41 0,0
18.11.2017 08:00:00 6,4 4,9 5,2 8,9 13,8 18 10 32 17 W 1023,1 9 0 0,0
18.11.2017 07:00:00 5,9 4,2 5,1 9,0 13,8 16 9 30 16 W 1022,8 9 0 0,0
18.11.2017 06:00:00 6,0 4,2 5,3 9,1 13,8 21 11 33 18 W 1022,5 10 0 0,0
18.11.2017 05:00:00 6,4 4,2 5,6 9,2 13,8 16 9 28 15 W 1022,7 10 0 0,0
18.11.2017 04:00:00 6,7 4,2 6,0 9,3 13,8 13 7 28 15 W 1022,9 10 0 0,0
18.11.2017 03:00:00 7,4 4,5 6,5 9,4 13,9 16 9 29 16 W 1022,8 14 0 0,0
18.11.2017 02:00:00 7,6 4,5 6,7 9,5 13,9 16 9 31 17 W 1022,5 10 0 0,0
18.11.2017 01:00:00 7,7 4,5 6,7 9,6 13,9 14 7 25 14 W 1022,6 13 0 0,0
18.11.2017 00:00:00 8,6 4,6 7,7 9,7 13,9 15 8 26 14 W 1022,8 10 0 0,0
17.11.2017 23:00:00 8,8 4,6 7,9 9,8 13,9 13 7 26 14 W 1022,8 10 0 0,0
17.11.2017 22:00:00 9,1 3,9 8,2 10,0 13,9 13 7 27 15 W 1022,8 10 0 0,0
17.11.2017 21:00:00 9,3 3,7 8,4 10,1 13,9 16 9 30 16 W 1022,4 10 0 0,0
17.11.2017 20:00:00 9,9 4,1 9,0 10,1 13,9 18 10 33 18 W 1022,3 10 0 0,0
17.11.2017 19:00:00 10,6 3,6 9,7 10,2 13,9 21 11 35 19 W 1021,7 10 0 0,0
17.11.2017 18:00:00 11,1 4,1 10,3 10,3 14,0 22 12 36 19 W 1021,3 10 0 0,0
17.11.2017 17:00:00 12,0 4,5 11,2 10,1 14,0 22 12 39 21 WNW 1020,8 10 58 0,0
17.11.2017 16:00:00 13,6 5,2 14,0 9,8 13,9 21 11 38 20 W 1020,6 10 60 0,0
17.11.2017 15:00:00 13,7 5,1 15,0 9,5 14,0 26 14 44 24 W 1020,6 10 60 0,0
17.11.2017 14:00:00 13,5 4,4 15,6 9,1 14,0 22 12 41 22 W 1021,5 10 60 0,0
17.11.2017 13:00:00 13,4 4,8 15,6 8,7 14,0 22 12 36 19 WNW 1021,9 39 60 0,0
17.11.2017 12:00:00 11,9 4,1 13,1 8,5 14,1 16 9 35 19 W 1022,7 10 60 0,0
17.11.2017 11:00:00 10,2 3,0 12,1 8,3 14,0 16 9 30 16 W 1023,3 10 60 0,0
17.11.2017 10:00:00 9,1 2,0 7,2 8,3 14,1 18 10 33 18 W 1023,3 10 39 0,0
17.11.2017 09:00:00 7,8 1,6 5,5 8,4 14,1 13 7 27 15 W 1023,5 10 33 0,0
17.11.2017 08:00:00 6,9 2,0 5,2 8,5 14,1 11 6 21 12 WZW 1023,2 10 0 0,0
17.11.2017 07:00:00 6,9 2,2 5,5 8,6 14,1 8 4 30 16 W 1023,0 10 0 0,0
17.11.2017 06:00:00 7,1 2,6 5,6 8,6 14,1 16 9 28 15 W 1022,6 10 0 0,0
17.11.2017 05:00:00 6,8 2,3 5,8 8,8 14,2 14 8 32 18 W 1022,5 20 0 0,0
17.11.2017 04:00:00 6,8 2,5 5,6 8,9 14,1 21 11 35 19 WNW 1022,5 10 0 0,0
17.11.2017 03:00:00 6,4 2,3 5,6 8,9 14,1 18 10 35 19 WNW 1022,8 10 0 0,0
17.11.2017 02:00:00 6,8 1,5 5,8 9,1 14,2 24 13 37 20 W 1022,5 21 0 0,0
17.11.2017 01:00:00 6,6 2,5 5,8 9,2 14,2 16 9 35 19 W 1022,8 10 0 0,0
17.11.2017 00:00:00 6,6 2,9 5,6 9,3 14,2 24 13 41 22 W 1023,0 10 0 0,0
16.11.2017 23:00:00 6,6 3,0 5,7 9,4 14,2 16 9 32 17 W 1023,1 10 0 0,0
16.11.2017 22:00:00 6,8 3,2 6,0 9,6 14,2 18 10 31 17 W 1023,2 10 0 0,0
16.11.2017 21:00:00 6,9 3,5 6,3 9,6 14,2 18 10 31 17 WNW 1023,1 10 0 0,0
16.11.2017 20:00:00 8,2 3,8 7,4 9,7 14,3 18 10 32 17 W 1022,7 10 0 0,0
16.11.2017 19:00:00 8,4 3,2 7,5 9,8 14,3 18 10 35 19 W 1022,3 22 0 0,0
16.11.2017 18:00:00 9,4 4,2 8,7 9,8 14,3 22 12 37 20 W 1021,5 10 1 0,0
16.11.2017 17:00:00 10,7 3,9 10,1 9,7 14,3 18 10 40 22 W 1020,7 10 55 0,0
16.11.2017 16:00:00 11,7 3,2 11,5 9,4 14,3 24 13 42 23 W 1020,1 10 52 0,0
16.11.2017 15:00:00 13,1 4,0 14,7 9,0 14,3 23 13 38 20 W 1020,1 35 60 0,0
16.11.2017 14:00:00 12,8 2,3 15,1 8,5 14,3 18 10 31 17 W 1020,4 35 60 0,0
16.11.2017 13:00:00 12,2 3,4 15,1 8,1 14,3 18 10 29 15 W 1020,9 10 60 0,0
16.11.2017 12:00:00 10,7 4,2 13,6 7,7 14,4 15 8 24 13 W 1021,8 10 60 0,0
16.11.2017 11:00:00 8,0 4,6 10,5 7,6 14,4 5 3 8 5 - 1022,8 10 60 0,0
16.11.2017 10:00:00 4,1 2,8 3,9 7,6 14,4 4 2 13 7 - 1022,8 10 60 0,0
16.11.2017 09:00:00 2,3 2,0 -4,0 7,8 14,4 0 0 8 4 N 1022,4 9 52 0,0
16.11.2017 08:00:00 -1,7 -2,4 -4,4 8,0 14,4 2 1 7 4 - 1022,0 4,3 0 0,0

tt = temperatuur
td = dauwpunt
tt 5cm = temperatuur 5cm
tt -20cm = temperatuur -20cm
tt -100cm = temperatuur -100cm
ff = windsnelheid
fx = windstoten
dd = windrichting
ppp = luchtdruk
vv = zicht
sd = Zonneschijnduur
rr = neerslag

Weerstations in de omgeving